Regional Weather Roundup
Issued by NWS Cleveland, OH

Home | Current Version | Previous Version | Text Only | Print | Product List | Glossary Off
Versions: 1 2 3 4 5 6 7 8 9 10 11 12 13 14 15 16 17 18 19 20 21 22 23 24 25 26 27 28 29 30 31 32 33 34 35 36 37 38 39 40 41 42 43 44 45 46 47 48 49 50

000
ASUS41 KCLE 190210
RWRCLE
OHIO REGIONAL WEATHER ROUNDUP
NATIONAL WEATHER SERVICE CLEVELAND, OH
1000 PM EDT SAT APR 18 2015

NOTE: "FAIR" INDICATES FEW OR NO CLOUDS BELOW 12,000 FEET WITH NO
SIGNIFICANT WEATHER AND/OR OBSTRUCTIONS TO VISIBILITY.

OHZ001>008-015>018-024>027-034-035-043-044-190300-
   NORTHWEST OHIO

CITY           SKY/WX    TMP DP  RH WIND       PRES   REMARKS
DEFIANCE       CLOUDY    57  24  28 E8        30.08R
FINDLAY        CLOUDY    57  33  40 NE14      30.08R
TOLEDO EXPRESS MOCLDY    55  30  38 E13       30.11R
TOLEDO EXEC    MOCLDY    53  36  52 NE9       30.13R
LIMA           MOCLDY    59  36  42 NE12      30.06R
$$

OHZ009>014-019>023-028>033-038-089-190300-
   NORTHEAST OHIO

CITY           SKY/WX    TMP DP  RH WIND       PRES   REMARKS
CLE-HOPKINS    MOCLDY    53  31  42 NE9       30.11S
CLE-LAKEFRONT  MOCLDY    51  40  65 NE9       30.09S
CUY CO. ARPT   PTCLDY    55  36  47 E7        30.11S
LORAIN-ELYRIA  MOCLDY    53  37  54 NE8       30.11R
ASHTABULA      MOCLDY    55  30  38 NE5       30.13S
AKRON-CANTON   CLOUDY    60  37  42 NE9       30.09R
WOOSTER        CLOUDY    57  39  51 NE9       30.09R
MANSFIELD      CLOUDY    57  34  41 NE9       30.09R
YOUNGSTOWN     MOCLDY    56  33  42 NE9       30.09S
$$

OHZ042-051>053-060>062-070>072-077>081-190300-
  SOUTHWEST OHIO

CITY           SKY/WX    TMP DP  RH WIND       PRES   REMARKS
CINC-COVINGTON MOCLDY    70  45  40 NE8       29.97S
CINC-LUNKEN    MOCLDY    62  54  74 CALM      29.97S
HAMILTON       MOCLDY    65  51  60 NE6       29.98S
DAYTON         CLOUDY    67  51  56 NE8       30.02R
WRIGHT-PAT AFB MOCLDY    65  50  58 NE13      30.01R
DAYTON GENERAL CLOUDY    66  47  50 NE5       29.99R
WILMINGTON     CLOUDY    65  47  52 NE6       30.00R
$$

OHZ036-037-039>041-045>050-054>059-063>069-073>076-082>088-190300-
  CENTRAL AND SOUTHEAST OHIO

CITY           SKY/WX    TMP DP  RH WIND       PRES   REMARKS
COLUMBUS       MOCLDY    67  47  48 NE13      30.02R
OSU AIRPORT    MOCLDY    66  47  50 NE12      30.02R
BOLTON FIELD   MOCLDY    68  48  48 NE9       30.03R
RICKENBACK AFB MOCLDY    64  48  56 NE8       30.01S
NEWARK         CLOUDY    67  46  47 N5        30.03R
MARION         CLOUDY    57  39  51 NE12      30.07R
LANCASTER      CLOUDY    67  47  48 NE10      30.02S
ZANESVILLE     CLOUDY    66  43  43 NE6       30.04R
NEW PHILLY     CLOUDY    68  41  37 NE8       30.07R
$$


USA.gov is the U.S. government's official web portal to all federal, state and local government web resources and services.